Time,TemperatureF,DewpointF,PressureIn,WindDirection,WindDirectionDegrees,WindSpeedMPH,WindSpeedGustMPH,Humidity,HourlyPrecipIn,Conditions,Clouds,dailyrainin,SoftwareType,DateUTC
2013-06-03 00:00:00,65.2,65.2,29.99,North,-999,0.0,0.0,100,0.00,,,-99.99,WeatherLink 5.4,2013-06-03 04:00:00,
2013-06-03 00:30:00,65.0,65.0,30.00,North,-999,0.0,0.0,100,0.00,,,-99.99,WeatherLink 5.4,2013-06-03 04:30:00,
2013-06-03 01:00:00,64.4,64.4,30.00,North,-999,0.0,0.0,100,0.01,,,-99.99,WeatherLink 5.4,2013-06-03 05:00:00,
2013-06-03 01:30:00,63.5,63.5,30.00,North,-999,0.0,0.0,100,0.01,,,-99.99,WeatherLink 5.4,2013-06-03 05:30:00,
2013-06-03 02:00:00,63.0,63.0,30.00,North,-999,0.0,1.0,100,0.00,,,-99.99,WeatherLink 5.4,2013-06-03 06:00:00,
2013-06-03 02:30:00,62.7,62.7,30.00,North,-999,0.0,0.0,100,0.00,,,-99.99,WeatherLink 5.4,2013-06-03 06:30:00,
2013-06-03 03:00:00,63.0,63.0,29.99,North,-999,0.0,0.0,100,0.00,,,-99.99,WeatherLink 5.4,2013-06-03 07:00:00,
2013-06-03 03:30:00,63.6,63.6,29.98,North,-999,0.0,0.0,100,0.00,,,-99.99,WeatherLink 5.4,2013-06-03 07:30:00,
2013-06-03 04:00:00,63.7,63.7,29.99,North,-999,0.0,0.0,100,0.00,,,-99.99,WeatherLink 5.4,2013-06-03 08:00:00,
2013-06-03 04:30:00,63.0,63.0,29.98,North,-999,0.0,0.0,100,0.00,,,-99.99,WeatherLink 5.4,2013-06-03 08:30:00,
2013-06-03 05:00:00,62.5,62.5,29.98,North,-999,0.0,0.0,100,0.00,,,-99.99,WeatherLink 5.4,2013-06-03 09:00:00,
2013-06-03 05:30:00,62.5,62.5,29.98,North,-999,0.0,0.0,100,0.00,,,-99.99,WeatherLink 5.4,2013-06-03 09:30:00,
2013-06-03 06:00:00,62.5,62.5,29.98,North,-999,0.0,1.0,100,0.00,,,-99.99,WeatherLink 5.4,2013-06-03 10:00:00,
2013-06-03 06:30:00,62.3,62.3,29.99,North,-999,0.0,0.0,100,0.01,,,-99.99,WeatherLink 5.4,2013-06-03 10:30:00,
2013-06-03 07:00:00,62.5,62.5,30.00,North,-999,0.0,0.0,100,0.01,,,-99.99,WeatherLink 5.4,2013-06-03 11:00:00,
2013-06-03 07:30:00,62.4,62.4,30.00,North,-999,0.0,0.0,100,0.00,,,-99.99,WeatherLink 5.4,2013-06-03 11:30:00,
2013-06-03 07:33:00,62.5,62.5,30.00,SSE,152,0.0,0.0,100,0.00,,OVC,0.02,VWS V14.01,2013-06-03 11:33:00,
2013-06-03 08:00:00,62.5,62.5,30.01,North,-999,0.0,1.0,100,0.00,,,-99.99,WeatherLink 5.4,2013-06-03 12:00:00,
2013-06-03 08:01:00,62.5,62.5,30.01,North,-999,0.0,1.0,100,0.00,,,-99.99,WeatherLink 5.4,2013-06-03 12:01:00,
2013-06-03 08:30:00,63.1,63.1,30.00,SSE,157,0.0,3.0,100,0.00,,,-99.99,WeatherLink 5.4,2013-06-03 12:30:00,
2013-06-03 09:00:00,63.8,63.8,30.02,North,-999,0.0,1.0,100,0.00,,,-99.99,WeatherLink 5.4,2013-06-03 13:00:00,
2013-06-03 09:30:00,64.1,64.1,30.02,North,-999,0.0,1.0,100,0.00,,,-99.99,WeatherLink 5.4,2013-06-03 13:30:00,
2013-06-03 10:00:00,64.6,64.6,30.02,SSE,157,0.0,4.0,100,0.00,,,-99.99,WeatherLink 5.4,2013-06-03 14:00:00,
2013-06-03 10:30:00,65.1,65.1,30.03,SSE,157,0.0,4.0,100,0.00,,,-99.99,WeatherLink 5.4,2013-06-03 14:30:00,
2013-06-03 11:00:00,65.6,65.6,30.03,SSE,157,2.0,6.0,100,0.00,,,-99.99,WeatherLink 5.4,2013-06-03 15:00:00,
2013-06-03 11:30:00,66.4,66.1,30.03,NW,315,0.0,5.0,99,0.00,,,-99.99,WeatherLink 5.4,2013-06-03 15:30:00,
2013-06-03 12:00:00,68.3,65.3,30.03,NW,315,4.0,9.0,90,0.00,,,-99.99,WeatherLink 5.4,2013-06-03 16:00:00,
2013-06-03 12:30:00,69.9,65.5,30.03,NNW,337,6.0,11.0,86,0.00,,,-99.99,WeatherLink 5.4,2013-06-03 16:30:00,
2013-06-03 12:31:00,69.9,65.5,30.03,NNW,337,6.0,11.0,86,0.00,,,-99.99,WeatherLink 5.4,2013-06-03 16:31:00,
2013-06-03 13:00:00,70.6,64.8,30.03,NNW,337,5.0,9.0,82,0.00,,,-99.99,WeatherLink 5.4,2013-06-03 17:00:00,
2013-06-03 13:30:00,71.5,65.0,30.02,NNW,337,4.0,9.0,80,0.00,,,-99.99,WeatherLink 5.4,2013-06-03 17:30:00,
2013-06-03 13:31:00,71.5,65.0,30.02,NNW,337,4.0,9.0,80,0.00,,,-99.99,WeatherLink 5.4,2013-06-03 17:31:00,
2013-06-03 14:00:00,71.3,64.4,30.00,NW,315,4.0,8.0,79,0.00,,,-99.99,WeatherLink 5.4,2013-06-03 18:00:00,
2013-06-03 14:30:00,72.0,64.4,30.00,NNW,337,4.0,8.0,77,0.00,,,-99.99,WeatherLink 5.4,2013-06-03 18:30:00,
2013-06-03 15:00:00,73.0,64.6,29.99,NNW,337,5.0,11.0,75,0.00,,,-99.99,WeatherLink 5.4,2013-06-03 19:00:00,
2013-06-03 15:30:00,73.4,63.8,29.99,NNW,337,5.0,9.0,72,0.00,,,-99.99,WeatherLink 5.4,2013-06-03 19:30:00,
2013-06-03 15:31:00,73.4,63.8,29.99,NNW,337,5.0,9.0,72,0.00,,,-99.99,WeatherLink 5.4,2013-06-03 19:31:00,
2013-06-03 16:00:00,73.5,62.7,29.98,NW,315,5.0,11.0,69,0.00,,,-99.99,WeatherLink 5.4,2013-06-03 20:00:00,
2013-06-03 16:30:00,73.6,62.4,29.98,NNW,337,2.0,8.0,68,0.00,,,-99.99,WeatherLink 5.4,2013-06-03 20:30:00,
2013-06-03 16:31:00,73.6,62.4,29.98,NNW,337,2.0,8.0,68,0.00,,,-99.99,WeatherLink 5.4,2013-06-03 20:31:00,
2013-06-03 17:00:00,73.9,62.7,29.97,NNW,337,4.0,8.0,68,0.00,,,-99.99,WeatherLink 5.4,2013-06-03 21:00:00,
2013-06-03 17:30:00,73.6,62.4,29.97,NNW,337,4.0,10.0,68,0.00,,,-99.99,WeatherLink 5.4,2013-06-03 21:30:00,
2013-06-03 17:31:00,73.6,62.4,29.97,NNW,337,4.0,10.0,68,0.00,,,-99.99,WeatherLink 5.4,2013-06-03 21:31:00,
2013-06-03 18:00:00,73.6,62.8,29.97,NNW,337,2.0,7.0,69,0.00,,,-99.99,WeatherLink 5.4,2013-06-03 22:00:00,
2013-06-03 18:30:00,73.6,61.5,29.97,NNW,337,4.0,8.0,66,0.00,,,-99.99,WeatherLink 5.4,2013-06-03 22:30:00,
2013-06-03 19:00:00,73.4,62.6,29.97,NNW,337,4.0,8.0,69,0.00,,,-99.99,WeatherLink 5.4,2013-06-03 23:00:00,
2013-06-03 19:01:00,73.4,62.6,29.97,NNW,337,4.0,8.0,69,0.00,,,-99.99,WeatherLink 5.4,2013-06-03 23:01:00,
2013-06-03 19:30:00,72.9,62.9,29.98,NNW,337,4.0,7.0,71,0.00,,,-99.99,WeatherLink 5.4,2013-06-03 23:30:00,
2013-06-03 19:36:00,72.3,62.4,29.98,NNW,342,4.0,6.0,71,0.00,,SCT,0.02,VWS V14.01,2013-06-03 23:36:00,
2013-06-03 20:00:00,72.0,63.3,29.98,NNW,337,4.0,7.0,74,0.00,,,-99.99,WeatherLink 5.4,2013-06-04 00:00:00,
2013-06-03 20:01:00,72.0,63.3,29.98,NNW,337,4.0,7.0,74,0.00,,,-99.99,WeatherLink 5.4,2013-06-04 00:01:00,
2013-06-03 20:30:00,70.9,63.3,29.99,NNW,337,1.0,4.0,77,0.00,,,-99.99,WeatherLink 5.4,2013-06-04 00:30:00,
2013-06-03 21:00:00,69.8,63.0,30.00,North,-999,0.0,0.0,79,0.00,,,-99.99,WeatherLink 5.4,2013-06-04 01:00:00,
2013-06-03 21:30:00,69.0,62.2,30.01,NNW,337,0.0,1.0,79,0.00,,,-99.99,WeatherLink 5.4,2013-06-04 01:30:00,
2013-06-03 21:31:00,69.0,62.2,30.01,NNW,337,0.0,1.0,79,0.00,,,-99.99,WeatherLink 5.4,2013-06-04 01:31:00,
2013-06-03 22:00:00,68.2,62.5,30.03,North,-999,0.0,0.0,82,0.00,,,-99.99,WeatherLink 5.4,2013-06-04 02:00:00,
2013-06-03 22:30:00,66.6,62.6,30.04,North,-999,0.0,0.0,87,0.00,,,-99.99,WeatherLink 5.4,2013-06-04 02:30:00,
2013-06-03 22:31:00,66.6,62.6,30.04,North,-999,0.0,0.0,87,0.00,,,-99.99,WeatherLink 5.4,2013-06-04 02:31:00,
2013-06-03 23:00:00,65.9,62.2,30.05,North,-999,0.0,0.0,88,0.00,,,-99.99,WeatherLink 5.4,2013-06-04 03:00:00,
2013-06-03 23:30:00,65.3,62.0,30.06,North,-999,0.0,0.0,89,0.00,,,-99.99,WeatherLink 5.4,2013-06-04 03:30:00,